Houghton, MI

4:43 AM EDT on May 28, 2017 (GMT -0400)
Houghton County Memorial

Weather History for KCMX - March, 2013

Change the Weather History Date:

Wednesday, March 27, 2013

  Actual Average Record
Temperature  
Mean Temperature 28 °F -  
Max Temperature 37 °F 37 °F 104 °F (1998)
Min Temperature 19 °F 21 °F -3 °F (1964)
Degree Days  
Heating Degree Days 37    
Moisture  
Dew Point 20 °F    
Average Humidity 69    
Maximum Humidity 96    
Minimum Humidity 46    
Precipitation  
Precipitation 0.00 in - - ()
Sea Level Pressure  
Sea Level Pressure 30.28 in    
Wind  
Wind Speed 11 mph (NW)    
Max Wind Speed 16 mph    
Max Gust Speed 21 mph    
Visibility 10 miles    
Events      
Averages and records for this station are not official NWS values.
T = Trace of Precipitation, MM = Missing Value Source: NWS Daily Summary

Daily Weather History Graph

Daily Weather History Graph

Search for Another Location

Airport or City:

Trip Planner

Search our weather history database for the weather conditions in past years. The results will help you decide how hot, cold, wet, or windy it might be!

Date:

Astronomy

Mar. 27, 2013 Rise Set
Actual Time 7:42 AM EDT 8:16 PM EDT
Civil Twilight 7:11 AM EDT 8:47 PM EDT
Nautical Twilight 6:35 AM EDT 9:24 PM EDT
Astronomical Twilight 5:57 AM EDT 10:02 PM EDT
Moon 9:06 PM EDT (3/27) 7:30 AM EDT (3/27)
Length of Visible Light 13h 35m
Length of Day
12h 34m
Full, 100% of the Moon is Illuminated
Mar 27
Full
Apr 3
Last Quarter
Apr 10
New
Apr 18
First Quarter
Apr 25
Full

Hourly Weather History & Observations

Time (EDT) Temp. Windchill Dew Point Humidity Pressure Visibility Wind Dir Wind Speed Gust Speed Precip Events Conditions
12:53 AM 23.0 °F 12.4 °F 21.0 °F 92% 30.24 in 10.0 mi NW 10.4 mph - N/A   Clear
1:53 AM 21.0 °F 10.6 °F 19.9 °F 96% 30.24 in 10.0 mi NW 9.2 mph - N/A   Clear
2:53 AM 26.1 °F 16.8 °F 21.9 °F 84% 30.24 in 10.0 mi NNW 9.2 mph - N/A   Clear
3:53 AM 21.9 °F 11.7 °F 19.0 °F 89% 30.24 in 10.0 mi NW 9.2 mph - N/A   Clear
4:53 AM 19.9 °F 8.6 °F 18.0 °F 92% 30.24 in 10.0 mi NW 10.4 mph - N/A   Clear
5:53 AM 26.1 °F 15.0 °F 21.9 °F 84% 30.24 in 10.0 mi NW 12.7 mph - N/A   Clear
6:53 AM 25.0 °F 14.8 °F 21.9 °F 88% 30.26 in 10.0 mi NW 10.4 mph - N/A   Clear
7:53 AM 24.1 °F 16.0 °F 21.9 °F 91% 30.27 in 10.0 mi NNW 6.9 mph - N/A   Clear
8:53 AM 25.0 °F 16.3 °F 21.0 °F 85% 30.28 in 10.0 mi NW 8.1 mph - N/A   Clear
9:53 AM 30.9 °F 23.5 °F 23.0 °F 72% 30.29 in 10.0 mi NNW 8.1 mph - N/A   Clear
10:53 AM 33.1 °F 26.9 °F 23.0 °F 66% 30.29 in 10.0 mi NNW 6.9 mph - N/A   Clear
11:53 AM 35.1 °F 25.2 °F 19.9 °F 54% 30.29 in 10.0 mi North 16.1 mph - N/A   Clear
12:53 PM 35.1 °F 25.9 °F 19.9 °F 54% 30.30 in 10.0 mi NNW 13.8 mph 20.7 mph N/A   Clear
1:53 PM 36.0 °F 26.3 °F 18.0 °F 48% 30.30 in 10.0 mi North 16.1 mph - N/A   Clear
2:53 PM 36.0 °F 27.5 °F 19.9 °F 52% 30.30 in 10.0 mi NNW 12.7 mph 20.7 mph N/A   Clear
3:53 PM 36.0 °F 27.1 °F 18.0 °F 48% 30.30 in 10.0 mi NNW 13.8 mph - N/A   Clear
4:53 PM 37.0 °F 28.9 °F 19.0 °F 48% 30.29 in 10.0 mi NW 12.7 mph - N/A   Clear
5:53 PM 36.0 °F 27.5 °F 19.9 °F 52% 30.28 in 10.0 mi WNW 12.7 mph - N/A   Clear
6:53 PM 36.0 °F 27.1 °F 17.1 °F 46% 30.29 in 10.0 mi WNW 13.8 mph - N/A   Clear
7:53 PM 34.0 °F 26.0 °F 18.0 °F 52% 30.29 in 10.0 mi West 10.4 mph - N/A   Clear
8:53 PM 30.9 °F 23.5 °F 19.9 °F 64% 30.29 in 10.0 mi WNW 8.1 mph - N/A   Clear
9:53 PM 30.0 °F 22.4 °F 19.9 °F 66% 30.29 in 10.0 mi WNW 8.1 mph - N/A   Clear
10:53 PM 24.1 °F 14.4 °F 18.0 °F 77% 30.30 in 10.0 mi WNW 9.2 mph - N/A   Clear
11:53 PM 28.9 °F 18.6 °F 19.0 °F 67% 30.28 in 10.0 mi WNW 12.7 mph - N/A   Clear